Regional Weather Roundup
Issued by NWS

Home | Current Version | Previous Version | Text Only | Print | Product List | Glossary On
Versions: 1 2 3 4 5 6 7 8 9 10 11 12 13 14 15 16 17 18 19 20 21 22 23 24 25 26 27 28 29 30 31 32 33 34 35 36 37 38 39 40 41 42 43 44 45 46 47 48 49 50
000
ASUS43 KTOP 220259
RWRKS

WEATHER ROUNDUP FOR KANSAS
NATIONAL WEATHER SERVICE GOODLAND KS
1000 PM CDT TUE OCT 21 2014

NOTE:  "FAIR" INDICATES FEW OR NO CLOUDS BELOW 12,000 FEET WITH NO
SIGNIFICANT WEATHER AND/OR OBSTRUCTIONS TO VISIBILITY.

KSZ001>006-013>018-027>032-041>047-220400-
NORTHWEST KANSAS

CITY           SKY/WX    TMP DP  RH WIND       PRES   REMARKS
GOODLAND       PTCLDY    60  46  59 S14       29.96R
HAYS           CLEAR     64  54  68 SE13      29.98S
HILL CITY      CLEAR     69  54  58 S14       29.96R
RUSSELL        CLEAR     65  57  75 S14       29.98S
$$

KSZ061>065-074>080-084>089-220400-
SOUTHWEST KANSAS

CITY           SKY/WX    TMP DP  RH WIND       PRES   REMARKS
DODGE CITY     CLEAR     66  52  60 S16       30.01S
ELKHART          N/A     60  44  55 S13         N/A
GARDEN CITY    CLEAR     61  51  70 S9        29.99R
GREAT BEND     CLEAR     66  55  68 S13       30.01S
LIBERAL        CLEAR     64  48  55 S12       30.03R
$$

KSZ066>073-081>083-090>101-220400-
SOUTHEAST KANSAS

CITY           SKY/WX    TMP DP  RH WIND       PRES   REMARKS
CHANUTE        CLEAR     61  53  75 E7        30.09R
COFFEYVILLE    CLEAR     63  55  75 E5        30.08R
HUTCHINSON     CLEAR     66  58  75 SE9       30.03S
NEWTON         CLEAR     63  54  72 SE9       30.07R
PARSONS        CLEAR     64  53  67 CALM      30.10R
WICHITA INTL   CLEAR     68  59  73 SE10      30.04R
WICHITA JABRA  CLEAR     65  58  78 SE8       30.05R
WINFIELD       CLEAR     67  61  81 SE6       30.07R
$$

KSZ007>012-019>026-033>040-048>060-102>105-220400-
NORTHEAST KANSAS

CITY           SKY/WX    TMP DP  RH WIND       PRES   REMARKS
CONCORDIA      CLEAR     64  55  72 SE10      30.01R
EMPORIA        CLEAR     61  55  81 SE9       30.07R
LAWRENCE       CLEAR     53  45  74 SE5       30.10R
MANHATTAN      CLEAR     64  52  64 VRB3      30.04R
OLATHE IND     CLEAR     58  44  60 SE7       30.12R
OLATHE EXE     CLEAR     58  43  57 SE6       30.11R
SALINA         CLEAR     66  57  72 SE10      30.02R
TOPEKA BILLARD CLEAR     58  46  64 SE7       30.09R
TOPEKA FORBES  CLEAR     58  45  62 E9        30.08R
$$



USA.gov is the U.S. government's official web portal to all federal, state and local government web resources and services.